DW6233 Weather Reports


Display with metric or nautical units.
time (UTC)temp
F
wind
direction
speed
MPH
gust
MPH
rain 1hr
in
rain 24hr
in
rain mn
in
humidity
%
barometer
mb
20260507123058 62 38 10.0 24.0 0.00 0.01 0.00 88 1016.1
20260507121525 62 86 12.0 25.0 0.00 0.01 0.00 86 1016.1
20260507120033 64 48 10.0 19.0 0.00 0.01 0.00 80 1016.0
20260507114600 63 46 9.0 21.0 0.00 0.01 0.00 82 1015.7
20260507113033 63 39 9.0 19.0 0.00 0.01 0.00 83 1016.1
20260507111555 62 69 10.0 20.0 0.00 0.01 0.00 85 1016.2
20260507110054 62 29 10.0 25.0 0.00 0.01 0.00 86 1016.3
20260507104522 63 28 20.0 36.0 0.00 0.01 0.01 84 1016.6
20260507103004 64 10 20.0 34.0 0.00 0.01 0.01 79 1016.4
20260507101507 65 16 16.0 28.0 0.00 0.01 0.01 76 1016.6
20260507100016 64 22 11.0 18.0 0.00 0.01 0.01 77 1016.5
20260507094531 64 77 10.0 18.0 0.00 0.01 0.01 79 1016.8
20260507093008 63 41 9.0 17.0 0.00 0.01 0.01 80 1017.0
20260507091545 63 95 7.0 18.0 0.00 0.01 0.01 80 1017.3
20260507090033 63 21 10.0 23.0 0.00 0.01 0.01 81 1017.4
20260507083007 64 33 13.0 24.0 0.01 0.01 0.01 79 1017.5
20260507081528 64 36 13.0 23.0 0.01 0.01 0.01 79 1017.5
20260507080057 63 38 17.0 27.0 0.01 0.01 0.01 80 1017.7
20260507074512 63 358 11.0 35.0 0.00 0.00 0.00 80 1017.9
20260507073052 64 26 16.0 26.0 0.00 0.00 0.00 77 1018.1
20260507071548 66 360 14.0 26.0 0.00 0.00 0.00 70 1017.7
20260507064555 65 349 7.0 25.0 0.00 0.00 0.00 72 1017.6
20260507063006 66 5 18.0 27.0 0.00 0.00 0.00 69 1017.5
20260507061533 66 11 16.0 33.0 0.00 0.00 0.00 70 1017.8
20260507060018 66 21 18.0 30.0 0.00 0.00 0.00 70 1017.9
20260507053038 66 15 13.0 28.0 0.00 0.00 0.00 70 1018.0
20260507051502 65 341 15.0 23.0 0.00 0.00 0.00 71 1018.1
20260507050005 65 50 16.0 27.0 0.00 0.00 0.00 71 1017.9
20260507044525 65 4 22.0 33.0 0.00 0.00 0.00 71 1017.8
20260507043043 65 22 20.0 31.0 0.00 0.00 0.00 72 1017.9
20260507041515 65 7 17.0 37.0 0.00 0.00 0.00 74 1018.1
20260507040044 65 69 17.0 32.0 0.00 0.00 0.00 74 1018.3
20260507034605 65 28 18.0 31.0 0.00 0.00 0.00 74 1018.4
20260507033044 65 36 21.0 30.0 0.00 0.00 0.00 73 1018.3
20260507031554 65 19 19.0 31.0 0.00 0.00 0.00 73 1018.4
20260507030019 65 90 18.0 27.0 0.00 0.00 0.00 73 1018.5
20260507024559 65 27 18.0 31.0 0.00 0.00 0.00 73 1018.5
20260507023025 64 73 11.0 26.0 0.00 0.00 0.00 76 1018.8
20260507021502 64 14 14.0 23.0 0.00 0.00 0.00 75 1018.9
20260507020109 65 36 14.0 22.0 0.00 0.00 0.00 75 1019.0
20260507014530 65 52 12.0 25.0 0.00 0.00 0.00 74 1018.9
20260507013051 65 57 12.0 25.0 0.00 0.00 0.00 76 1019.3
20260507011511 64 134 8.0 20.0 0.00 0.00 0.00 77 1019.5
20260507010001 64 19 12.0 24.0 0.00 0.00 0.00 77 1020.0
20260507004540 64 49 11.0 19.0 0.00 0.00 0.00 78 1020.0
20260507003010 64 21 15.0 23.0 0.00 0.00 0.00 78 1020.4
20260507001557 64 58 15.0 28.0 0.00 0.00 0.00 78 1020.4
20260507000121 64 43 14.0 26.0 0.00 0.00 0.00 79 1020.6
20260506234600 64 43 11.0 26.0 0.00 0.00 0.00 79 1020.7
20260506233011 64 45 11.0 21.0 0.00 0.00 0.00 79 1020.9
20260506231519 64 32 13.0 26.0 0.00 0.00 0.00 80 1021.2
20260506224503 63 54 14.0 24.0 0.00 0.00 0.00 80 1021.3
20260506223058 63 38 12.0 21.0 0.00 0.00 0.00 80 1021.5
20260506221551 63 24 11.0 24.0 0.00 0.00 0.00 81 1021.7
20260506220006 62 60 11.0 23.0 0.00 0.00 0.00 81 1022.0
20260506214504 62 27 9.0 22.0 0.00 0.02 0.00 82 1022.3
20260506213012 62 47 11.0 21.0 0.00 0.02 0.00 82 1022.5
20260506210017 63 14 12.0 23.0 0.00 0.02 0.00 80 1022.6
20260506204516 62 44 11.0 24.0 0.00 0.02 0.00 82 1022.6
20260506203018 61 315 11.0 27.0 0.00 0.02 0.00 83 1022.6
20260506201556 61 52 11.0 19.0 0.00 0.02 0.00 82 1022.7
20260506200053 61 26 10.0 18.0 0.00 0.02 0.00 83 1022.6
20260506194525 61 43 9.0 17.0 0.00 0.02 0.00 83 1022.7
20260506193049 61 57 8.0 17.0 0.00 0.02 0.00 83 1022.8
20260506191512 61 131 7.0 20.0 0.00 0.02 0.00 83 1022.7
20260506190034 61 339 7.0 17.0 0.00 0.02 0.00 83 1022.7
20260506184546 61 14 8.0 15.0 0.00 0.02 0.00 83 1022.7
20260506184525 61 27 8.0 14.0 0.00 0.02 0.00 84 1022.7
20260506183027 61 84 10.0 18.0 0.00 0.02 0.00 84 1022.8
20260506181535 61 44 9.0 19.0 0.00 0.02 0.00 84 1022.9
20260506180036 61 26 13.0 19.0 0.00 0.02 0.00 83 1023.0
20260506174549 61 29 10.0 19.0 0.00 0.02 0.00 84 1023.2
20260506173048 61 40 7.0 16.0 0.00 0.02 0.00 85 1023.3
20260506171558 61 119 7.0 19.0 0.00 0.02 0.00 85 1023.3
20260506170019 61 26 7.0 15.0 0.00 0.02 0.00 85 1023.4
20260506164510 61 72 7.0 13.0 0.00 0.02 0.00 85 1023.6
20260506163051 61 46 10.0 15.0 0.00 0.02 0.00 85 1023.7
20260506161526 61 22 9.0 15.0 0.00 0.02 0.00 86 1023.8
20260506160025 61 27 8.0 20.0 0.00 0.02 0.00 87 1024.1
20260506154526 61 75 10.0 17.0 0.00 0.02 0.00 87 1024.2
20260506153025 61 43 8.0 16.0 0.00 0.02 0.00 89 1024.4
20260506151523 60 45 10.0 17.0 0.00 0.02 0.00 90 1024.6
20260506150021 60 6 9.0 18.0 0.00 0.02 0.00 90 1024.7
20260506144518 60 358 7.0 12.0 0.00 0.02 0.00 92 1025.0
20260506143024 60 85 7.0 13.0 0.00 0.02 0.00 93 1025.2
20260506141517 60 37 9.0 16.0 0.00 0.02 0.00 93 1025.4
20260506140019 60 45 6.0 15.0 0.00 0.02 0.00 94 1025.5
20260506134516 60 26 7.0 13.0 0.00 0.02 0.00 94 1025.6
20260506133013 60 52 7.0 14.0 0.00 0.02 0.00 93 1025.6
20260506131511 60 24 11.0 19.0 0.00 0.02 0.00 93 1025.7
20260506130011 61 15 7.0 17.0 0.00 0.02 0.00 92 1025.7
20260506124509 61 7 11.0 17.0 0.00 0.02 0.00 90 1025.7